Time,TemperatureF,DewpointF,PressureIn,WindDirection,WindDirectionDegrees,WindSpeedMPH,WindSpeedGustMPH,Humidity,HourlyPrecipIn,Conditions,Clouds,dailyrainin,SoftwareType,DateUTC
2018-01-16 00:09:00,26.0,20.0,-100.00,SSE,150,2.0,5.0,78,-99.99,,,-99.99,,2018-01-16 05:09:00,
2018-01-16 01:09:00,26.0,22.0,-100.00,SSE,157,1.0,4.0,83,-99.99,,,-99.99,,2018-01-16 06:09:00,
2018-01-16 01:38:00,24.0,20.0,-100.00,South,172,1.0,-999.0,86,-99.99,,,-99.99,,2018-01-16 06:38:00,
2018-01-16 02:08:00,24.0,20.0,-100.00,South,172,1.0,3.0,86,-99.99,,,-99.99,,2018-01-16 07:08:00,
2018-01-16 02:39:00,24.0,21.0,-100.00,ESE,121,0.0,3.0,88,-99.99,,,-99.99,,2018-01-16 07:39:00,
2018-01-16 03:08:00,24.0,21.0,-100.00,ESE,121,0.0,3.0,88,-99.99,,,-99.99,,2018-01-16 08:08:00,
2018-01-16 03:38:00,25.0,22.0,-100.00,SE,134,1.0,3.0,88,-99.99,,,-99.99,,2018-01-16 08:38:00,
2018-01-16 04:08:00,25.0,22.0,-100.00,SE,134,1.0,3.0,88,-99.99,,,-99.99,,2018-01-16 09:08:00,
2018-01-16 04:38:00,26.0,23.0,-100.00,ESE,120,0.0,3.0,88,-99.99,,,-99.99,,2018-01-16 09:38:00,
2018-01-16 05:08:00,26.0,23.0,-100.00,ESE,120,0.0,3.0,88,-99.99,,,-99.99,,2018-01-16 10:08:00,
2018-01-16 05:38:00,26.0,22.0,-100.00,ESE,123,2.0,5.0,85,-99.99,,,-99.99,,2018-01-16 10:38:00,
2018-01-16 06:08:00,26.0,22.0,-100.00,ESE,123,2.0,5.0,85,-99.99,,,-99.99,,2018-01-16 11:08:00,
2018-01-16 07:08:00,27.0,22.0,-100.00,SE,132,2.0,5.0,82,-99.99,,,-99.99,,2018-01-16 12:08:00,
2018-01-16 07:38:00,27.0,23.0,-100.00,ESE,103,1.0,5.0,83,-99.99,,,-99.99,,2018-01-16 12:38:00,
2018-01-16 08:08:00,27.0,23.0,-100.00,ESE,103,1.0,5.0,83,-99.99,,,-99.99,,2018-01-16 13:08:00,
2018-01-16 08:38:00,27.0,23.0,-100.00,SE,134,1.0,4.0,85,-99.99,,,-99.99,,2018-01-16 13:38:00,
2018-01-16 09:08:00,27.0,23.0,-100.00,SE,134,1.0,4.0,85,-99.99,,,-99.99,,2018-01-16 14:08:00,
2018-01-16 09:38:00,28.0,24.0,-100.00,SE,127,4.0,7.0,84,-99.99,,,-99.99,,2018-01-16 14:38:00,
2018-01-16 10:08:00,28.0,24.0,-100.00,SE,127,4.0,7.0,84,-99.99,,,-99.99,,2018-01-16 15:08:00,
2018-01-16 10:38:00,30.0,24.0,-100.00,SSE,158,3.0,8.0,78,-99.99,,,-99.99,,2018-01-16 15:38:00,